Alesund, Norway

11:23 PM CET on March 25, 2017 (GMT +0100)
Alesund

Weather History for ENAL - October, 2013

Change the Weather History Date:

Wednesday, October 23, 2013

  Actual Average Record
Temperature  
Mean Temperature 56 °F -  
Max Temperature 60 °F 44 °F 60 °F (2013)
Min Temperature 51 °F 40 °F 33 °F (1997)
Degree Days  
Heating Degree Days 10    
Growing Degree Days 6 (Base 50)    
Moisture  
Dew Point 51 °F    
Average Humidity 84    
Maximum Humidity 100    
Minimum Humidity 59    
Precipitation  
Precipitation 0.00 in - - ()
Sea Level Pressure  
Sea Level Pressure 29.11 in    
Wind  
Wind Speed 9 mph ()    
Max Wind Speed 17 mph    
Max Gust Speed -    
Visibility 5.9 miles    
Events Rain    
Averages and records for this station are not official NWS values.
T = Trace of Precipitation, MM = Missing Value Source: Averaged Metar Reports

Daily Weather History Graph

Daily Weather History Graph

Search for Another Location

Airport or City:

Trip Planner

Search our weather history database for the weather conditions in past years. The results will help you decide how hot, cold, wet, or windy it might be!

Date:

Astronomy

Oct. 23, 2013 Rise Set
Actual Time 8:43 AM CEST 5:54 PM CEST
Civil Twilight 7:56 AM CEST 6:41 PM CEST
Nautical Twilight 7:03 AM CEST 7:34 PM CEST
Astronomical Twilight 6:11 AM CEST 8:26 PM CEST
Moon 8:16 PM CEST (10/23) 1:44 PM CEST (10/23)
Length of Visible Light 10h 45m
Length of Day
9h 10m
Waning Gibbous, 81% of the Moon is Illuminated
Oct 23
Waning Gibbous
Oct 27
Last Quarter
Nov 3
New
Nov 10
First Quarter
Nov 17
Full

Hourly Weather History & Observations

Time (CEST) Temp. Dew Point Humidity Pressure Visibility Wind Dir Wind Speed Gust Speed Precip Events Conditions
2:00 AM 53 °F 50 °F 86% 29.11 in - SE 8.9 mph - -  
3:20 AM 53.6 °F 51.8 °F 94% 29.09 in 6.2 mi South 8.1 mph - N/A Rain Light Rain
3:50 AM 53.6 °F 51.8 °F 94% 29.12 in 3.7 mi SSW 6.9 mph - N/A   Drizzle
4:20 AM 53.6 °F 53.6 °F 100% 29.12 in 3.7 mi SSW 9.2 mph - N/A   Drizzle
4:50 AM 53.6 °F 53.6 °F 100% 29.12 in 5.0 mi SW 12.7 mph - N/A Rain Light Rain
5:20 AM 53.6 °F 53.6 °F 100% 29.12 in 3.7 mi SW 17.3 mph - N/A   Mostly Cloudy
5:50 AM 53.6 °F 53.6 °F 100% 29.12 in 4.3 mi WSW 12.7 mph - N/A   Light Drizzle
6:20 AM 53.6 °F 53.6 °F 100% 29.12 in 6.2 mi WSW 12.7 mph - N/A Rain Light Rain
6:50 AM 53.6 °F 53.6 °F 100% 29.12 in 6.2 mi SW 12.7 mph - N/A   Light Drizzle
7:20 AM 55.4 °F 51.8 °F 88% 29.12 in 6.2 mi SW 16.1 mph - N/A   Scattered Clouds
7:50 AM 57.2 °F 50.0 °F 77% 29.12 in 6.2 mi SW 15.0 mph - N/A   Scattered Clouds
8:00 AM 56 °F 50 °F 75% 29.15 in 34 mi SW 11.2 mph - -   Partly Cloudy
8:20 AM 55.4 °F 50.0 °F 82% 29.12 in 6.2 mi SSW 12.7 mph - N/A   Scattered Clouds
8:50 AM 57.2 °F 48.2 °F 72% 29.15 in 6.2 mi South 9.2 mph - N/A   Scattered Clouds
9:20 AM 57.2 °F 48.2 °F 72% 29.15 in 6.2 mi South 11.5 mph - N/A   Mostly Cloudy
9:50 AM 55.4 °F 50.0 °F 82% 29.15 in 6.2 mi SSW 11.5 mph - N/A   Mostly Cloudy
10:20 AM 57.2 °F 50.0 °F 77% 29.15 in 6.2 mi SSW 11.5 mph - N/A   Mostly Cloudy
10:50 AM 59.0 °F 48.2 °F 67% 29.15 in 6.2 mi South 10.4 mph - N/A   Mostly Cloudy
11:20 AM 57.2 °F 50.0 °F 77% 29.15 in 6.2 mi South 9.2 mph - N/A   Mostly Cloudy
11:50 AM 59.0 °F 50.0 °F 72% 29.15 in 6.2 mi SSW 9.2 mph - N/A   Mostly Cloudy
12:20 PM 59.0 °F 50.0 °F 72% 29.15 in 6.2 mi South 8.1 mph - N/A   Partly Cloudy
12:50 PM 59.0 °F 50.0 °F 72% 29.15 in 6.2 mi South 8.1 mph - N/A   Partly Cloudy
1:20 PM 59.0 °F 50.0 °F 72% 29.15 in 6.2 mi South 6.9 mph - N/A   Mostly Cloudy
1:50 PM 60.8 °F 50.0 °F 68% 29.15 in 6.2 mi SSW 6.9 mph - N/A   Mostly Cloudy
2:00 PM 60 °F 49 °F 59% 29.15 in 34 mi SSW 8.9 mph - -   Partly Cloudy
2:20 PM 59.0 °F 50.0 °F 72% 29.12 in 6.2 mi SSW 9.2 mph - N/A   Mostly Cloudy
2:50 PM 59.0 °F 50.0 °F 72% 29.12 in 6.2 mi SE 4.6 mph - N/A   Mostly Cloudy
3:20 PM 59.0 °F 50.0 °F 72% 29.12 in 6.2 mi SSW 3.5 mph - N/A Rain Light Rain
3:50 PM 59.0 °F 51.8 °F 77% 29.12 in 6.2 mi SSE 4.6 mph - N/A   Mostly Cloudy
4:20 PM 57.2 °F 50.0 °F 77% 29.12 in 6.2 mi SE 6.9 mph - N/A   Light Drizzle
4:50 PM 57.2 °F 50.0 °F 77% 29.12 in 6.2 mi SE 4.6 mph - N/A Rain Light Rain
5:20 PM 55.4 °F 51.8 °F 88% 29.12 in 6.2 mi Variable 1.2 mph - N/A Rain Light Rain
5:50 PM 53.6 °F 51.8 °F 94% 29.12 in 6.2 mi SE 4.6 mph - N/A Rain Light Rain
6:20 PM 53.6 °F 51.8 °F 94% 29.09 in 6.2 mi South 3.5 mph - N/A   Mostly Cloudy
6:50 PM 53.6 °F 51.8 °F 94% 29.09 in 6.2 mi ESE 3.5 mph - N/A   Mostly Cloudy
7:20 PM 53.6 °F 51.8 °F 94% 29.06 in 6.2 mi East 5.8 mph - N/A   Scattered Clouds
7:50 PM 51.8 °F 50.0 °F 94% 29.06 in 6.2 mi East 4.6 mph - N/A   Scattered Clouds
8:00 PM 53 °F 51 °F 91% 29.08 in 34 mi ENE 8.9 mph - -   Partly Cloudy
8:20 PM 53.6 °F 51.8 °F 94% 29.06 in 6.2 mi ENE 9.2 mph - N/A Rain Light Rain
8:50 PM 53.6 °F 51.8 °F 94% 29.06 in 6.2 mi ENE 10.4 mph - N/A Rain Light Rain
9:20 PM 53.6 °F 51.8 °F 94% 29.03 in 6.2 mi ENE 10.4 mph - N/A   Scattered Clouds
9:50 PM 53.6 °F 50.0 °F 88% 29.03 in 6.2 mi NE 8.1 mph - N/A   Light Drizzle
10:20 PM 53.6 °F 50.0 °F 88% 29.03 in 6.2 mi NE 9.2 mph - N/A   Scattered Clouds
10:50 PM 53.6 °F 50.0 °F 88% 29.03 in 6.2 mi ENE 9.2 mph - N/A   Scattered Clouds
11:20 PM 53.6 °F 50.0 °F 88% 29.03 in 6.2 mi NE 3.5 mph - N/A   Partly Cloudy
11:50 PM 53.6 °F 50.0 °F 88% 29.03 in 6.2 mi NE 2.3 mph - N/A   Scattered Clouds